Погода в Журавлеве

Россия / Кемеровская область (Кузбасс)     54°47′02″N   85°03′39″E
темп.,
°C
ветер,
м/с
пор.,
м/с
влажн.,
%
обл.,
%
осадки,
мм/ч
давл.,
гПа
погр.,
м
28 ноября, вс
вс2801:00−7юз102086100 0.5 1028888
04:00−6юз101986100 0.3 1028895
07:00−7зюз91789100 0.9 1028830
10:00−7зюз81586100 0.2 1031606
13:00−7юз7148666 0.3 1032596
16:00−7юз6138761 0.0 1033522
19:00−8юз6148848 0.1 1035418
22:00−9юз6138925 0.0 1036352
29 ноября, пн
пн2901:00−10юз41191100 0.1 1037252
04:00−11ююз3794100 0.0 1037172
07:00−12ююз3894100 0.0 1037168
10:00−12ююз3793100 0.0 1037161
13:00−8ююз398761 0.0 1035292
16:00−9ююз3688100 0.0 1034175
19:00−11ююз3788100 0.0 1034142
22:00−11ююз3785100 0.0 1033140
30 ноября, вт
вт3001:00−10ююз3881100 0.0 1032157
04:00−10ююз31078100 0.0 1031172
07:00−10ююз31076100 0.0 1030167
10:00−9ююз41375100 0.0 1030268
13:00−6юз4147287 0.0 1029337
16:00−7юз4107381 0.0 1028222
19:00−9юз4107782 0.0 1029189
22:00−8юз410755 0.0 1029178
1 декабря, ср
ср101:00−12ююз35875 0.0 102974
04:00−13ююз35905 0.0 102969
07:00−14ююз24915 0.0 103062
10:00−13ююз35885 0.0 102990
13:00−6ююз4127710 0.0 1028246
16:00−6ююз4107512 0.0 1028205
19:00−8ююз4107938 0.0 1027186
22:00−7ююз5137577 0.0 1027240
2 декабря, чт
чт201:00−9юз387712 0.0 1026125
04:00−9юз387486 0.0 1026168
07:00−10ююз378027 0.0 1026103
10:00−9ююз41074100 0.0 1025160
13:00−4ююз51668100 0.0 1023344
16:00−4ююз41369100 0.0 1022269
19:00−3ююз6186397 0.0 1021350
22:00−2ююз72056100 0.0 1019357